Flag for Poland Weather past 2 weeks in Gdańsk, Poland

Now
57 °F

Passing clouds.


Feels Like: 55 °F
Forecast: 48 / 62 °F
Wind: 10 mph from Southeast

Location: Gdansk-Rebiechowo

Current Time: Oct 1, 2014 at 2:36:05 PM

Latest Report: Oct 1, 2014 at 2:00 PM


Visibility: N/A

Pressure: 30.36 "Hg

Humidity: 67%

Dew point: 46 °F

Location of GdańskLocation

Historic Weather in Gdańsk — Graph

°F

Gdańsk temperature yesterday

Maximum temperature yesterday: 59 °F (at 11:00 AM)
Minimum temperature yesterday: 48 °F (at 1:00 AM)
Average temperature yesterday: 54 °F

Past Weeks' High & Low Weather Summary

 TemperatureHumidityPressure
High72 °F (Sep 19, 3:30 PM)100% (Sep 20, 5:00 AM)30.36 "Hg (Sep 20, 5:00 AM)
Low39 °F (Sep 23, 10:30 PM)40% (Sep 18, 2:30 PM)29.56 "Hg (Sep 22, 7:30 AM)
Average55 °F79%30.03 "Hg
* Reported Sep 16 1:00 PM — Oct 1 1:30 PM, Gdańsk, Weather by CustomWeather, © 2014

Note: Actual official high and low records may vary slightly from our data, if they occured in-between our weather recording intervals... More about our weather records

Advertising

Gdańsk weather history for previous 24 hours

 ConditionsComfort  
Time TempWeatherWind HumidityBarometerVisibility
1:30 PM
Oct 1
57 °FScattered clouds.10 mph67%30.36 "HgN/A
1:00 PM57 °FScattered clouds.10 mph67%30.36 "HgN/A
12:30 PM55 °FScattered clouds.9 mph72%30.36 "HgN/A
12:00 PM54 °FScattered clouds.9 mph77%30.36 "HgN/A
11:30 AM54 °FScattered clouds.8 mph72%30.36 "HgN/A
11:00 AM54 °FScattered clouds.9 mph72%30.36 "HgN/A
10:30 AM54 °FPassing clouds.9 mph72%30.36 "HgN/A
10:00 AM54 °FPassing clouds.9 mph72%30.36 "HgN/A
9:30 AM54 °FSunny.8 mph72%30.36 "Hg10 mi
9:00 AM52 °FSunny.8 mph77%30.36 "Hg10 mi
8:30 AM52 °FSunny.7 mph77%30.33 "Hg10 mi
8:00 AM52 °FSunny.7 mph77%30.33 "Hg10 mi
7:30 AM52 °FClear.5 mph82%30.33 "Hg10 mi
7:00 AM50 °FClear.6 mph88%30.33 "Hg10 mi
6:30 AM52 °FPassing clouds.6 mph82%30.33 "HgN/A
6:00 AM52 °FClear.7 mph82%30.33 "Hg10 mi
5:30 AM52 °FClear.5 mph82%30.33 "Hg10 mi
5:00 AM52 °FClear.6 mph82%30.33 "Hg10 mi
4:30 AM52 °FClear.6 mph82%30.33 "Hg10 mi
4:00 AM52 °FClear.7 mph82%30.33 "Hg10 mi
3:30 AM54 °FClear.7 mph77%30.33 "Hg10 mi
3:00 AM54 °FClear.7 mph77%30.33 "Hg10 mi
2:30 AM54 °FClear.6 mph82%30.33 "Hg10 mi
2:00 AM54 °FClear.3 mph82%30.33 "Hg10 mi
1:30 AM54 °FClear.3 mph82%30.33 "Hg10 mi
1:00 AM54 °FClear.5 mph82%30.33 "Hg10 mi
12:30 AM54 °FClear.3 mph82%30.33 "Hg10 mi
12:00 AM54 °FClear.6 mph82%30.30 "Hg10 mi
11:30 PM
Sep 30
54 °FClear.7 mph82%30.30 "Hg10 mi
11:00 PM54 °FClear.7 mph82%30.30 "Hg10 mi
10:30 PM54 °FClear.8 mph82%30.30 "Hg10 mi
10:00 PM54 °FClear.7 mph82%30.30 "Hg10 mi
9:30 PM54 °FPassing clouds.8 mph82%30.30 "HgN/A
9:00 PM54 °FLight rain. Passing clouds.7 mph82%30.30 "HgN/A
8:30 PM54 °FPassing clouds.8 mph82%30.30 "HgN/A
8:00 PM55 °FPassing clouds.7 mph77%30.27 "HgN/A
7:30 PM55 °FPassing clouds.6 mph82%30.30 "HgN/A
7:00 PM55 °FSunny.6 mph82%30.27 "Hg10 mi
6:30 PM55 °FSunny.6 mph82%30.27 "Hg10 mi
6:00 PM55 °FSprinkles. Scattered clouds.6 mph88%30.27 "HgN/A
5:30 PM57 °FPassing clouds.7 mph82%30.27 "HgN/A
5:00 PM57 °FScattered clouds.6 mph88%30.27 "HgN/A
4:30 PM57 °FBroken clouds.5 mph94%30.24 "HgN/A
4:00 PM59 °FBroken clouds.8 mph88%30.24 "HgN/A
3:30 PM59 °FScattered clouds.6 mph88%30.24 "HgN/A
3:00 PM59 °FPartly sunny.7 mph82%30.24 "HgN/A
2:30 PM59 °FPassing clouds.5 mph88%30.24 "HgN/A
2:00 PM59 °FPassing clouds.5 mph82%30.24 "HgN/A
Weather by CustomWeather, © 2014

See weather overviewHow to use our weather pages